Regional Weather Roundup
Issued by NWS Upton, NY

Current Version | Previous Version | Text Only | Print | Product List | Glossary On
Versions: 1 2 3 4 5 6 7 8 9 10 11 12 13 14 15 16 17 18 19 20 21 22 23 24 25 26 27 28 29 30 31 32 33 34 35 36 37 38 39 40 41 42 43 44 45 46 47 48 49 50
675
ASUS41 KOKX 241008
RWROKX

REGIONAL WEATHER ROUNDUP
NATIONAL WEATHER SERVICE NEW YORK NY
500 AM EST FRI FEB 24 2017

NOTE: "FAIR" INDICATES FEW OR NO CLOUDS BELOW 12,000 FEET WITH NO
SIGNIFICANT WEATHER AND/OR OBSTRUCTIONS TO VISIBILITY.

NYZ071-072-176-178-NJZ106-104-241100-
NEW YORK CITY METRO AREA

CITY           SKY/WX    TMP DP  RH WIND       PRES   REMARKS
Central Park   CLOUDY    59  52  77 W8        29.95R
Wall St Helipt NOT AVBL
LaGuardia APRT CLOUDY    50  45  83 CALM      29.93R
Kennedy INTL   PTCLDY    46  46 100 S5        29.94R
Breezy Point     N/A     45 N/A N/A SE6         N/A
Newark/Liberty MOCLDY    54  50  86 CALM      29.93R
Teterboro      CLOUDY    52  49  89 S3        29.92R
$$

NYZ177-179-078>081-241100-
LONG ISLAND NEW YORK

CITY           SKY/WX    TMP DP  RH WIND       PRES   REMARKS
Jones Beach      N/A     45 N/A N/A SW3         N/A
Matinecock PT  NOT AVBL
Farmingdale    CLEAR     44  42  93 CALM      29.95R
MacArthur/ISP  CLEAR     47  46  97 S5        29.94R
Shirley        PTCLDY    47  47 100 S6        29.96R
Westhampton    CLEAR     48  45  89 SW6       29.97R
Southampton    NOT AVBL
Bridgehampton  NOT AVBL
East Hampton     N/A     46  45  97 S5        29.96R
Montauk          N/A     48  46  93 S5        29.97R
$$

NYZ052-065-067-241100-
HUDSON VALLEY

CITY           SKY/WX    TMP DP  RH WIND       PRES   REMARKS
White Plains   CLEAR     47  44  90 CALM      29.92R
Newburgh       MOCLDY    52  52 100 CALM      29.81R
Montgomery     CLOUDY    48  47  96 CALM      29.88S FOG
Poughkeepsie   MOCLDY    48  47  96 CALM      29.89R FOG
Albany         CLOUDY    47  43  86 CALM      29.90S
$$

NJZ001-105-106-008-010-013-015-019>022-104-241100-
NEW JERSEY

CITY           SKY/WX    TMP DP  RH WIND       PRES   REMARKS
Newark/Liberty MOCLDY    54  50  86 CALM      29.93R
Teterboro      CLOUDY    52  49  89 S3        29.92R
Caldwell       PTCLDY    48  46  93 CALM      29.93R
Somerville     CLOUDY    43  40  89 CALM      29.90S
Linden         NOT AVBL
Sussex         CLOUDY    46  46 100 CALM      29.90R
Andover          N/A     50  48  93 S3        29.90R
Trenton        PTCLDY    50  49  96 CALM      29.92R
Millville      CLEAR     52  52 100 VRB3      29.94R
Atlantic City  CLEAR     53  49  86 S7        29.95R
Wrightstown    CLEAR     49  48  95 CALM      29.91R
Toms River     CLEAR     53  50  89 S5        29.95R
Belmar         CLEAR     56  51  84 S7        29.94S
$$

PAZ047>061-062-071-241100-
EASTERN PENNSYLVANIA

CITY           SKY/WX    TMP DP  RH WIND       PRES   REMARKS
Philadelphia   PTCLDY    52  49  89 S7        29.93R
Allentown      CLOUDY    53  48  83 S5        29.90R
Scranton       CLOUDY    53  52  96 CALM      29.87R
$$

CTZ002-004>006-009-010-012-RIZ004-006-007-MAZ004-011-015-241100-
SOUTHERN NEW ENGLAND
 IN CT

CITY           SKY/WX    TMP DP  RH WIND       PRES   REMARKS
Bradley INTL   MOCLDY    44  44 100 N3        29.93R FOG
Hartford       PTCLDY    50  47  89 S5        29.93R
Danbury        PTCLDY    42  41  96 CALM      29.93R FOG
Wtrbury/Oxford CLOUDY    48  43  81 SW3       29.95R
Bridgeport     CLEAR     44  41  89 CALM      29.94R
Meriden        CLEAR     46  43  89 CALM      29.94R
New Haven      PTCLDY    40  40 100 CALM      29.94R FOG
Chester          N/A     50  48  93 VRB6      29.94R
Groton         CLEAR     42  41  96 S5        29.95R
Wilimantic     PTCLDY    42  40  92 NE3       29.94R FOG

 IN RI

CITY           SKY/WX    TMP DP  RH WIND       PRES   REMARKS
Providence     CLEAR     49  46  90 CALM      29.93R
Block Island   MOCLDY    48  47  96 SW12      29.97R
Westerly       CLEAR     51  46  83 SW8       29.96R
 IN MA

CITY           SKY/WX    TMP DP  RH WIND       PRES   REMARKS
Boston         CLOUDY    50  48  93 VRB5      29.92R
Worcester      MOCLDY    51  48  89 W10       29.92R
Westfield      CLOUDY    40  40 100 CALM      29.92R FOG
Provincetown   CLEAR     45  44  97 S9        29.95R
Nantucket      CLEAR     45  43  93 SW8       29.98R
$$

ANZ330-335-338-340-345-350-353-355-241100-
COASTAL MARINE OBSERVATIONS


STATION/POSITION TIME  SKY/WX   TEMP    WIND        PRES    VSBY  WAVE
                                AIR SEA DIR/SP/G                  HT/PER
                 (UTC)          (F)     (DEG/KT/KT) (MB)    (MI)  (FT/S)
NY HARB ENTRANCE 0850            47 44  200/ 10/ 12 1013.1          4/11
20 S FIRE ISLAND 0950            46 43  210/  8/  8 1014.1          3/12
GREAT SOUTH BAY  NOT AVBL
23 SSW MONTAUK P 0850            47 43              1014.9          4/11
15 E BARNEGAT LI 0930               43                N/A           4/12
HUDSON CANYON    0850               47              1014.7          4/12
KINGS POINT      0936            51 41              1013.3
EXECUTION ROCKS  NOT AVBL
CENTRAL LI SOUND 0915            45     200/  6/  6   N/A           1
EASTERN LI SOUND NOT AVBL
ROBBINS REEF     0936            53     180/  6/  7 1013.6
$$


>>>>>>>>>>>>>>>>>>>>>>>>>>>> KEY <<<<<<<<<<<<<<<<<<<<<<<<<<<
>                                                          <
>     SKY/WX - Sky Condition/Present Weather               <
>     TMP    - Temperature in Fahrenheit                   <
>     DP     - Dew Point in Fahrenheit                     <
>     RH     - Relative Humidity in Percent                <
>     WIND   - Direction (from) and Speed in MPH           <
>     PRES   - Mean Sea Level Pressure (inches of Hg)      <
>     WCI    - Wind Chill Index                            <
>     VSB    - VISIBILITY IN MILES                         <
>     HX     - HEAT INDEX                                  <
>     TC     - TEMPERATURE IN CELSIUS                      <
>     VRB    - VARIABLE WIND DIRECTION                     <
>                                                          <
>>>>>>>>>>>>>>>>>>>>>>>>>>>> KEY <<<<<<<<<<<<<<<<<<<<<<<<<<<




USA.gov is the U.S. government's official web portal to all federal, state and local government web resources and services.